Wind_Speed
12 13 13 15 16 16 17 17 18 19 20 21 21 21 21 22 22 21 22 23 24 25 26 26 27 27 27 27 28 28 29 29 30 31 31 31 32 31
13 13 14 15 16 16 17 18 19 19 19 21 21 22 21 21 22 23 24 24 25 25 25 25 26 27 27 27 28 29 30 30 31 32 32 32 33 34
13 14 14 15 16 17 17 18 19 19 19 20 21 21 21 22 22 23 23 24 25 25 26 26 27 27 28 28 29 30 30 31 31 32 32 33 33 34
13 14 14 15 16 17 17 18 19 20 20 20 20 20 21 21 22 24 24 24 25 25 27 27 28 29 29 30 31 31 31 32 32 33 34 34 35 35
13 14 14 15 16 17 18 18 18 19 19 20 20 21 21 22 23 24 24 25 26 27 28 28 29 30 30 31 31 31 32 32 33 34 34 35 36 36
14 14 15 16 16 16 17 18 18 18 19 20 20 21 22 23 24 25 25 25 26 26 27 28 29 30 31 32 32 32 33 34 34 34 35 35 36 37
15 15 16 16 17 17 18 18 18 19 19 20 21 22 23 24 25 25 26 26 27 28 28 30 30 31 32 32 33 34 34 35 35 36 36 36 37 38
16 16 17 18 18 18 18 19 20 20 20 22 23 24 24 25 26 26 27 27 28 29 30 31 31 32 33 33 33 34 35 36 36 37 38 38 39 39
17 17 18 18 18 19 20 21 22 22 22 23 23 24 25 25 26 27 28 29 29 30 30 31 32 33 33 33 34 35 36 37 37 38 38 39 39 39
18 18 19 19 19 20 21 22 22 23 23 24 25 25 26 26 27 28 29 29 30 30 31 32 32 33 34 34 35 36 36 37 37 38 38 38 38 39
19 19 20 21 21 21 22 23 24 24 25 25 26 27 27 28 28 29 29 30 30 30 31 31 32 33 33 34 35 36 37 37 37 37 37 37 38 39
20 21 21 22 22 22 23 24 24 25 26 27 27 28 28 29 29 29 29 30 30 30 31 32 32 33 34 34 35 35 36 36 36 36 37 38 38 38
22 22 23 23 24 24 24 25 25 26 27 28 28 28 29 29 29 29 29 29 30 31 31 32 33 33 34 34 34 34 34 35 35 36 36 36 36 37
23 23 24 24 25 25 26 27 27 27 28 28 28 28 29 29 28 28 29 29 30 31 32 32 32 32 33 33 33 33 33 34 34 35 35 36 36 36
24 25 25 26 26 27 27 27 28 28 28 28 29 29 29 29 29 29 30 30 31 31 31 31 32 32 32 32 33 33 33 33 33 33 34 34 34 34
26 26 26 26 27 28 27 27 27 27 27 28 29 29 29 29 29 30 30 30 30 30 31 31 31 31 31 31 31 32 32 32 32 33 33 33 33 33
27 27 27 27 27 27 27 27 27 27 28 28 29 29 29 29 29 30 30 30 30 30 30 30 30 30 30 30 30 30 31 31 31 31 31 31 32 31
28 28 27 27 27 27 27 27 27 28 28 29 29 29 29 30 30 30 30 29 30 30 30 30 30 30 30 29 30 30 30 30 30 30 30 30 30 29
27 27 27 27 27 27 27 27 28 28 28 29 29 29 30 30 30 29 29 29 29 29 30 30 30 30 30 30 29 29 29 29 29 29 29 29 28 28
26 26 26 26 26 26 27 28 28 28 28 29 29 29 29 29 29 29 29 29 29 30 30 29 29 29 29 29 29 28 28 28 28 28 28 28 27 26
26 26 26 26 26 27 28 29 29 29 29 29 29 29 29 29 28 28 29 29 29 29 29 29 29 28 28 28 28 28 28 28 28 28 27 27 26 25
26 27 27 27 27 28 28 28 29 29 29 29 29 29 28 28 28 28 29 29 29 29 29 29 28 28 28 28 28 28 28 28 27 27 26 26 25 24
27 27 27 27 28 28 29 29 29 29 29 28 28 28 28 28 29 29 29 29 29 29 29 28 28 28 27 27 27 27 27 27 27 26 26 25 24 24
Wind_Direction
287 286 284 285 284 280 277 278 280 280 281 281 283 285 284 284 285 286 284 283 282 281 282 282 281 280 278 277 278 279 279 278 277 276 275 275 273 273
291 288 288 288 289 289 285 282 282 281 281 282 285 285 286 286 286 286 285 283 282 281 283 284 285 284 282 281 281 281 281 280 279 277 276 277 275 275
297 294 293 292 292 292 291 288 285 283 283 285 288 286 287 288 286 288 288 286 285 283 282 284 286 287 284 283 284 283 284 283 281 279 278 278 277 276
302 300 298 295 294 295 293 292 288 286 285 286 290 289 290 291 290 290 289 287 286 286 284 285 286 286 286 284 285 285 285 285 284 282 282 281 280 278
306 305 304 302 301 299 297 296 294 292 290 289 291 291 291 292 293 293 293 293 290 287 287 287 288 287 287 287 287 287 287 287 285 284 283 283 282 281
309 309 307 308 308 307 305 301 297 295 293 292 292 292 293 294 294 294 294 294 294 293 292 291 291 290 289 288 288 287 286 286 285 285 284 283 283 282
309 309 308 307 307 306 306 305 303 301 299 298 296 295 295 295 295 295 296 296 295 294 293 292 292 291 290 288 287 286 287 286 285 285 284 284 283 282
310 309 308 308 307 307 307 306 305 304 302 300 298 297 297 297 297 298 299 298 297 296 294 293 292 292 291 290 289 288 288 287 287 285 284 283 283 283
310 308 309 311 309 307 306 306 305 303 302 300 299 299 299 299 299 300 299 298 296 295 294 294 293 293 292 292 291 291 290 289 288 287 286 284 283 282
308 307 309 310 310 308 306 306 307 306 304 304 304 303 303 302 302 301 299 299 297 296 295 295 295 294 294 294 294 293 293 291 290 289 288 287 286 285
309 309 310 308 308 308 309 309 310 309 308 307 307 305 305 303 302 301 300 300 299 299 298 298 297 297 297 296 296 295 295 295 293 292 291 291 290 289
309 309 310 309 309 310 310 310 310 310 310 309 308 307 307 307 306 305 304 303 302 301 300 300 300 299 298 298 297 297 296 295 294 293 293 292 292 291
307 307 309 310 310 310 311 311 311 310 310 310 309 309 309 308 307 306 305 304 303 302 302 301 301 300 299 299 299 299 298 297 296 295 295 294 293 292
307 307 308 308 309 311 311 311 311 311 311 311 310 310 310 309 307 306 306 305 305 304 304 303 303 302 301 301 301 301 301 301 300 299 299 297 296 295
307 306 306 306 307 309 310 311 311 311 311 311 312 312 310 309 307 307 307 307 307 306 306 305 304 304 303 303 303 303 303 303 303 302 301 300 299 298
306 306 307 307 308 309 310 310 311 312 312 312 313 313 311 310 309 309 309 309 309 309 309 308 307 306 306 305 305 304 305 304 304 304 302 301 301 300
305 306 306 308 308 308 309 309 310 311 311 312 313 313 311 311 311 311 311 311 311 311 311 309 309 308 308 307 307 306 306 306 306 306 305 304 303 302
305 305 306 308 309 309 309 310 311 311 311 312 312 312 312 312 312 312 312 311 311 311 311 311 310 310 310 309 308 309 309 308 308 308 308 307 306 305
305 305 307 308 308 309 311 311 312 312 312 312 313 313 313 313 313 312 312 312 312 312 312 312 312 312 312 312 311 310 311 311 311 311 310 309 307 306
306 307 308 308 308 308 310 311 311 311 311 312 312 313 313 313 313 312 313 313 313 313 313 312 312 312 312 312 313 313 312 312 311 311 310 310 309 308
306 306 306 305 306 308 309 310 311 311 311 311 312 312 312 313 313 313 314 314 314 314 314 314 313 313 313 312 312 313 312 312 311 312 311 310 309 308
304 304 303 303 305 308 309 309 310 311 311 312 312 313 314 314 314 314 315 315 315 315 315 315 314 314 313 313 313 313 313 312 312 312 312 311 310 309
301 301 301 303 305 307 309 310 310 311 311 312 312 314 315 315 315 315 315 315 316 316 315 315 314 314 314 315 314 314 314 313 313 313 312 312 311 310
Height
5875 5874 5873 5872 5871 5870 5869 5869 5868 5867 5865 5864 5863 5861 5860 5859 5858 5857 5856 5855 5854 5852 5851 5850 5848 5847 5846 5845 5843 5842 5841 5840 5839 5838 5836 5835 5834 5833
5872 5871 5870 5869 5868 5866 5865 5864 5863 5862 5861 5859 5858 5856 5855 5854 5853 5852 5850 5849 5847 5846 5845 5843 5842 5840 5839 5837 5836 5834 5833 5832 5831 5829 5828 5827 5826 5825
5869 5868 5866 5865 5864 5862 5861 5859 5858 5857 5856 5854 5853 5851 5850 5848 5847 5846 5844 5842 5841 5839 5838 5836 5835 5833 5831 5830 5828 5826 5825 5823 5822 5820 5819 5818 5816 5815
5866 5864 5863 5862 5860 5858 5857 5855 5853 5852 5851 5850 5848 5846 5844 5843 5841 5840 5838 5836 5834 5833 5831 5829 5827 5826 5824 5822 5820 5818 5816 5815 5813 5811 5810 5808 5807 5805
5863 5861 5860 5858 5856 5854 5852 5851 5849 5848 5846 5845 5843 5841 5839 5837 5835 5833 5831 5829 5827 5825 5824 5822 5820 5818 5815 5813 5811 5810 5808 5806 5804 5802 5800 5798 5797 5795
5860 5858 5856 5854 5853 5851 5849 5847 5845 5843 5841 5840 5838 5836 5834 5832 5830 5828 5825 5823 5821 5819 5816 5814 5812 5810 5807 5805 5803 5801 5799 5797 5795 5793 5791 5789 5787 5785
5857 5855 5853 5851 5849 5847 5845 5842 5840 5838 5836 5834 5832 5830 5828 5826 5823 5821 5819 5817 5814 5811 5809 5806 5804 5802 5799 5796 5794 5792 5789 5787 5785 5783 5780 5778 5776 5773
5853 5851 5849 5847 5845 5843 5841 5838 5836 5834 5831 5829 5827 5825 5822 5820 5817 5814 5812 5810 5807 5804 5801 5799 5796 5793 5790 5787 5785 5782 5779 5777 5774 5772 5769 5767 5764 5762
5850 5847 5845 5843 5841 5839 5836 5834 5832 5829 5827 5824 5821 5819 5816 5813 5811 5808 5805 5802 5799 5796 5793 5790 5787 5784 5781 5777 5774 5772 5769 5766 5763 5760 5757 5755 5752 5750
5846 5844 5841 5839 5836 5834 5832 5829 5826 5824 5821 5818 5815 5813 5809 5806 5803 5800 5797 5794 5791 5787 5784 5781 5778 5775 5771 5768 5765 5762 5758 5755 5752 5749 5746 5743 5741 5738
5842 5839 5837 5834 5832 5829 5827 5824 5821 5818 5815 5812 5809 5806 5802 5799 5796 5793 5790 5786 5783 5779 5776 5772 5769 5766 5762 5759 5755 5751 5748 5744 5741 5738 5735 5732 5729 5726
5837 5835 5832 5829 5827 5824 5821 5818 5815 5812 5809 5805 5802 5799 5795 5792 5789 5785 5782 5778 5774 5771 5767 5764 5760 5757 5753 5749 5745 5741 5738 5734 5731 5727 5724 5721 5718 5714
5832 5829 5827 5824 5821 5818 5815 5812 5809 5806 5802 5799 5795 5792 5788 5785 5781 5777 5774 5770 5767 5763 5759 5755 5751 5747 5743 5739 5735 5731 5728 5724 5720 5717 5714 5710 5707 5703
5826 5824 5821 5818 5815 5812 5809 5806 5802 5799 5795 5792 5788 5785 5781 5777 5773 5770 5766 5762 5758 5754 5750 5746 5742 5738 5734 5730 5726 5722 5718 5714 5710 5707 5703 5699 5696 5692
5821 5818 5815 5812 5809 5806 5803 5799 5796 5792 5788 5785 5781 5778 5774 5770 5766 5762 5758 5754 5750 5746 5742 5737 5733 5729 5725 5721 5717 5713 5709 5705 5701 5697 5693 5689 5686 5682
5815 5812 5809 5806 5803 5799 5796 5792 5789 5785 5782 5778 5774 5770 5766 5762 5758 5754 5750 5746 5742 5738 5733 5729 5725 5721 5716 5712 5708 5704 5701 5697 5693 5689 5684 5680 5677 5673
5808 5805 5802 5799 5796 5792 5789 5786 5782 5779 5775 5771 5767 5763 5759 5755 5751 5747 5742 5738 5734 5730 5726 5721 5717 5713 5708 5705 5700 5696 5692 5688 5685 5681 5677 5672 5668 5664
5802 5799 5795 5792 5789 5785 5782 5779 5775 5772 5768 5764 5760 5756 5752 5748 5743 5739 5735 5731 5726 5722 5718 5714 5709 5705 5701 5697 5693 5689 5685 5681 5677 5673 5668 5665 5661 5657
5795 5792 5789 5785 5782 5779 5776 5772 5768 5765 5761 5757 5753 5749 5745 5740 5736 5732 5727 5723 5719 5715 5710 5706 5702 5697 5693 5689 5686 5681 5677 5673 5669 5665 5661 5657 5653 5649
5788 5785 5782 5779 5776 5772 5769 5765 5762 5758 5754 5750 5746 5742 5737 5733 5729 5725 5720 5716 5712 5708 5703 5699 5695 5690 5686 5682 5678 5674 5670 5666 5662 5658 5654 5650 5646 5643
5781 5778 5775 5772 5769 5766 5762 5758 5755 5751 5747 5743 5738 5734 5730 5726 5722 5717 5713 5709 5705 5700 5696 5692 5687 5683 5679 5675 5671 5667 5663 5659 5655 5651 5647 5644 5640 5636
5774 5771 5768 5765 5762 5759 5755 5751 5748 5743 5739 5735 5731 5727 5723 5719 5715 5710 5706 5702 5698 5693 5689 5685 5680 5676 5672 5668 5664 5660 5656 5652 5648 5645 5641 5637 5633 5630
5767 5764 5761 5758 5755 5752 5748 5744 5740 5736 5732 5728 5724 5720 5716 5712 5708 5704 5699 5695 5691 5686 5682 5678 5674 5669 5665 5661 5657 5653 5649 5645 5641 5638 5634 5631 5627 5624